Theta_e
336 334 336 337 339 340 338 337 337 337 336 334 332 329 328 330 331 335 338 337 339 340 339 338 338 333 327 325 325 331 336 341 341 340 337 338 341 340 340 339 339 340 341
332 336 334 336 338 341 340 338 338 337 335 333 331 328 327 327 328 330 333 338 339 339 338 339 336 329 326 325 324 327 337 340 338 337 336 336 338 338 335 333 333 337 339
334 336 333 334 336 338 339 339 339 338 334 332 332 330 329 328 329 332 337 339 338 338 338 335 332 327 327 326 324 325 330 336 337 337 336 335 335 334 333 330 331 332 332
333 335 332 334 336 338 338 338 338 337 336 335 332 332 333 333 331 332 336 337 337 338 338 334 328 325 324 323 322 322 324 329 327 331 336 335 334 335 334 333 332 331 330
334 335 333 333 335 337 338 336 335 335 335 336 335 335 337 335 333 334 336 337 336 335 333 331 324 323 322 321 320 320 323 324 326 328 331 334 335 333 334 333 331 330 330
334 335 334 333 334 335 336 338 337 336 335 336 337 337 336 336 333 333 335 335 333 333 332 329 324 321 319 316 310 308 312 319 323 326 328 334 333 333 331 333 331 332 332
334 334 334 333 334 335 336 339 339 338 337 336 336 335 335 336 333 332 332 332 331 330 330 328 324 320 314 306 301 301 305 311 315 322 326 331 332 331 329 329 331 333 331
330 335 336 334 334 337 338 339 339 338 336 336 337 336 335 335 333 329 329 330 330 329 327 326 322 316 306 300 300 302 305 306 308 317 322 325 327 326 324 327 329 330 331
329 333 338 338 335 337 338 338 338 337 333 335 336 335 334 336 333 331 326 328 328 327 326 325 319 310 301 299 299 302 305 308 309 312 313 313 316 321 321 323 324 325 326
328 329 332 337 338 338 338 339 339 337 336 333 332 334 335 337 334 331 329 323 326 327 325 323 315 303 300 299 299 302 305 306 307 309 311 311 313 318 317 317 319 320 321
328 329 330 331 336 339 339 339 337 336 335 335 335 333 336 338 334 331 330 326 321 325 323 322 314 302 300 299 299 300 301 302 303 304 304 304 306 309 314 314 313 315 316
323 326 329 330 331 333 337 338 336 336 336 335 335 334 334 336 333 331 330 328 323 322 320 320 314 305 301 299 299 300 301 301 302 302 302 301 300 304 311 308 310 315 319
318 321 325 327 329 330 332 332 338 335 336 336 335 334 334 333 332 330 329 328 324 321 319 318 314 304 300 299 299 300 301 300 300 300 300 299 299 307 313 314 317 318 316
312 316 321 325 326 328 330 331 331 337 336 336 336 333 332 331 331 330 328 328 326 320 318 317 312 306 301 301 301 300 300 300 300 300 300 299 298 302 314 316 315 316 317
309 310 312 319 327 327 330 331 332 332 332 330 332 334 332 329 330 329 328 326 327 320 317 315 313 309 301 301 301 300 300 300 300 300 300 299 298 301 313 314 316 316 317
306 308 311 313 321 328 328 330 332 333 333 333 332 333 331 329 329 328 327 326 326 321 316 315 313 309 302 300 301 300 299 299 299 299 299 300 299 302 311 314 315 317 316
304 306 309 313 316 324 329 328 331 333 333 333 333 333 332 330 330 329 327 326 324 323 318 315 314 311 306 300 300 299 299 298 298 298 299 299 299 304 308 312 314 316 315
303 305 308 312 315 320 325 329 330 332 332 331 331 331 331 329 329 329 328 326 324 323 319 315 314 312 307 301 299 298 298 298 298 298 298 299 300 301 305 307 308 312 315
301 303 306 310 314 318 323 325 327 328 329 329 329 329 328 327 327 328 328 327 325 322 318 315 314 312 308 303 299 298 297 297 297 297 298 298 300 301 303 304 308 314 315
299 301 304 307 310 313 316 320 321 323 325 325 326 326 326 326 326 328 329 329 324 320 317 315 314 312 309 307 300 298 297 296 296 297 297 297 299 301 301 302 306 312 313
298 299 300 303 305 310 312 312 314 314 315 319 320 321 322 323 324 325 325 324 321 317 317 315 313 310 307 304 298 296 296 296 296 296 296 296 297 298 299 298 302 309 311
296 296 297 299 301 303 305 307 308 307 306 306 307 311 314 316 318 321 321 321 319 317 314 313 312 308 305 301 297 294 293 295 296 297 296 296 296 296 296 296 296 300 306
295 295 295 296 297 298 301 304 305 304 305 305 304 306 303 306 310 313 316 316 312 312 312 311 310 307 304 301 298 297 291 292 292 295 296 296 295 295 295 294 294 295 299
293 294 295 294 296 296 297 297 296 295 294 295 296 298 300 302 303 304 306 308 308 308 307 308 308 305 302 301 298 297 296 296 292 292 294 294 295 295 295 294 294 294 294
291 292 292 292 292 293 294 295 295 294 293 294 294 295 296 297 298 299 300 302 302 302 303 303 303 304 302 299 299 298 296 295 295 292 292 292 293 295 295 295 294 294 293
290 290 290 289 288 289 289 289 289 288 287 288 287 287 288 291 293 294 295 295 297 299 299 299 301 300 300 300 298 297 297 296 294 294 290 291 291 296 295 294 294 293 293
Wind_Speed
22 26 26 24 23 22 19 17 15 13 12 11 11 11 10 10 10 10 11 9 10 13 10 9 9 6 8 9 10 10 11 12 11 11 10 10 11 10 10 9 11 12 12
19 24 27 26 24 21 20 18 15 13 11 11 10 10 10 9 9 9 8 10 10 8 7 8 6 6 7 8 9 9 11 11 10 10 10 9 7 7 7 7 8 9 9
17 25 29 27 25 22 20 18 16 13 11 10 9 10 9 8 8 8 9 9 7 7 6 5 3 4 5 6 7 8 9 9 8 6 6 8 6 4 5 6 7 8 8
16 22 29 27 26 24 22 20 17 15 13 12 10 9 8 7 8 9 10 8 6 5 4 2 1 3 4 5 6 6 7 8 6 7 8 8 4 5 5 4 5 6 6
21 23 28 29 26 24 22 20 19 17 15 14 12 11 9 8 8 8 11 10 7 4 3 3 2 2 2 2 3 4 6 8 7 7 7 9 8 5 4 3 4 3 4
21 22 25 29 28 26 23 20 18 17 16 14 13 13 13 10 10 10 9 4 5 5 4 4 4 3 3 3 3 6 7 8 8 7 8 9 7 3 2 4 2 1 3
19 19 21 27 28 27 25 22 20 18 16 15 14 13 12 12 11 10 10 9 7 5 5 6 6 5 4 2 4 6 8 7 8 8 8 8 7 4 2 3 3 4 4
15 18 18 23 26 25 25 24 22 21 19 18 18 15 13 15 16 10 10 9 9 7 6 6 6 6 4 3 6 7 7 6 7 7 6 5 5 4 4 4 4 3 3
14 16 17 19 23 25 25 25 24 22 22 22 21 19 16 19 17 13 8 10 9 8 7 7 6 5 4 5 7 7 7 7 6 5 4 4 3 2 2 3 4 5 4
15 18 18 20 22 25 26 25 23 23 22 22 21 20 19 21 19 16 13 10 12 11 10 10 8 7 7 7 7 8 6 6 6 5 4 3 4 2 1 2 4 5 4
16 20 21 21 23 26 26 27 25 24 23 21 20 20 20 23 21 19 16 12 12 14 12 12 9 9 9 9 9 8 7 6 6 6 4 5 5 3 1 2 3 4 4
20 21 24 24 24 24 26 28 28 27 26 26 24 22 22 23 23 22 19 15 15 15 15 13 12 12 11 11 10 8 7 6 7 6 5 5 5 5 4 4 4 4 4
21 21 24 26 25 26 27 28 32 29 28 27 26 25 24 24 24 23 20 16 16 17 17 16 15 14 13 12 11 9 9 9 7 6 5 5 6 5 5 4 5 6 5
13 19 24 27 27 27 26 27 28 34 33 32 31 26 25 26 26 25 22 20 19 19 20 20 18 16 16 15 13 11 10 9 8 7 6 6 6 6 5 6 6 5 5
16 11 10 23 30 28 26 25 25 27 30 29 29 28 28 27 28 27 24 23 21 22 22 22 20 18 17 15 14 13 12 11 9 8 6 6 7 7 8 8 7 6 6
20 20 12 7 23 31 28 26 26 26 24 23 25 29 30 29 28 28 28 26 23 23 23 23 22 21 19 17 15 14 14 13 12 11 9 8 8 9 9 8 7 8 7
20 19 20 8 8 24 29 26 26 24 23 24 24 25 29 30 30 30 28 27 26 24 23 23 22 21 20 19 18 17 16 15 14 13 12 10 10 11 12 11 9 9 8
19 20 20 17 6 6 18 23 22 21 20 19 20 21 22 24 27 30 32 30 29 28 25 24 24 23 22 21 20 19 18 17 16 15 15 14 13 12 13 11 11 12 12
22 22 23 22 17 12 3 9 11 12 13 13 14 16 19 22 24 25 30 31 28 28 27 26 26 25 24 23 21 20 19 18 17 17 18 17 15 14 14 13 13 15 18
27 26 26 27 24 18 16 10 9 3 2 6 8 11 13 16 17 21 25 27 27 27 26 26 27 27 27 24 20 19 19 18 19 21 20 19 18 17 16 16 17 19 19
33 33 32 31 29 25 21 16 16 19 16 11 7 4 4 7 10 14 18 21 24 25 26 27 28 28 26 21 17 16 18 20 23 23 21 22 23 21 19 19 20 22 22
33 35 34 32 29 27 24 20 14 12 18 20 19 17 13 10 6 12 14 17 21 23 25 27 29 27 26 23 9 2 2 10 27 29 26 26 26 24 23 22 22 23 24
33 34 36 35 33 29 25 19 17 15 18 19 21 17 19 14 11 9 11 14 16 20 24 26 28 30 27 25 28 10 0 5 3 15 32 30 28 27 26 24 24 25 26
27 30 32 33 34 33 29 29 29 27 23 21 20 19 17 16 15 14 10 10 13 14 17 22 26 30 30 26 28 32 19 5 3 4 10 24 29 29 29 28 28 27 27
24 27 28 30 31 30 31 31 30 30 26 26 26 24 21 19 19 18 16 14 12 12 14 18 22 27 30 32 32 22 32 31 11 4 4 5 20 34 34 34 31 30 30
20 25 26 27 29 29 29 28 29 28 28 29 30 31 31 29 27 24 22 19 17 15 16 16 16 21 27 30 34 33 31 14 14 13 4 9 10 16 32 36 35 35 34
Wind_Direction
198 183 180 179 176 174 174 174 171 165 159 154 150 144 141 138 133 128 129 131 128 114 109 101 95 79 97 100 96 93 93 105 102 99 86 97 104 101 90 89 90 79 74
191 193 185 182 182 181 179 177 175 171 167 163 158 152 151 149 144 145 141 142 137 124 127 107 104 90 97 99 103 106 108 114 109 103 100 88 84 81 80 86 83 94 80
185 188 189 187 186 186 184 181 178 176 174 172 169 165 162 158 151 147 149 157 142 132 126 113 116 104 113 113 113 117 128 129 121 124 107 98 84 63 59 73 74 70 83
187 187 192 192 191 190 189 187 188 187 184 182 182 181 174 163 156 159 165 178 167 142 133 145 144 132 128 130 128 138 140 147 130 116 133 126 101 87 78 46 73 74 75
192 190 195 196 196 197 197 195 195 195 194 190 189 182 175 180 164 171 177 181 179 185 194 219 214 175 161 159 165 175 169 168 159 159 140 152 142 144 100 88 38 51 62
191 194 199 199 200 201 202 202 202 199 198 194 189 186 192 194 182 185 187 192 226 223 208 217 239 230 239 226 211 191 184 186 182 181 165 158 142 128 151 117 129 103 70
188 197 201 204 204 204 204 203 204 203 200 204 203 210 202 203 188 194 199 208 209 212 221 226 235 252 249 226 190 175 173 177 184 185 170 177 165 146 156 140 173 145 154
199 197 203 207 209 208 207 207 208 206 201 202 206 214 219 213 209 217 193 209 213 222 211 208 231 247 254 181 161 160 161 177 186 187 179 188 206 227 233 170 187 210 210
207 208 208 208 213 215 215 214 213 212 209 204 208 215 218 212 216 230 226 201 209 216 207 217 231 243 210 173 166 164 166 166 181 181 186 189 185 100 102 179 201 219 232
210 214 219 218 213 214 217 217 219 217 220 215 215 219 220 216 221 228 231 218 200 206 207 219 227 223 187 177 172 175 179 181 193 190 189 184 181 129 131 180 201 219 230
219 220 219 223 221 219 220 218 221 224 227 228 230 225 222 218 221 225 237 239 225 208 202 217 221 208 190 183 184 186 194 200 207 215 215 215 207 214 214 216 201 211 224
224 225 221 222 225 225 225 224 220 223 223 225 227 230 227 225 227 228 237 243 236 218 210 213 210 209 191 193 195 197 205 212 217 219 225 222 221 226 218 218 210 193 184
241 233 227 227 228 228 225 226 223 222 226 226 227 229 233 229 229 233 237 239 229 222 217 219 214 210 201 199 200 204 208 215 223 227 232 227 230 219 216 203 196 198 204
291 273 251 234 230 229 232 231 228 223 225 229 232 229 230 230 230 233 237 244 243 233 227 225 222 214 206 208 210 211 215 221 227 235 239 228 228 221 207 206 213 203 194
21 352 289 245 238 235 232 233 231 229 232 234 230 225 226 234 235 238 244 244 247 236 232 231 231 226 217 216 215 217 219 224 229 237 244 249 226 213 205 207 208 206 200
20 18 0 269 238 236 235 236 235 233 237 237 233 229 228 231 236 240 245 247 245 241 239 239 236 231 227 227 225 225 226 227 230 233 233 237 225 212 200 207 210 204 206
15 20 21 355 255 237 238 236 235 237 235 234 236 235 236 235 237 238 243 247 247 244 240 240 238 238 237 233 230 228 227 228 229 230 228 227 220 207 202 194 205 214 214
25 28 33 37 35 251 243 241 236 234 237 240 239 238 243 250 250 249 249 248 248 238 240 238 238 236 236 237 236 232 231 230 232 233 234 232 231 222 216 220 220 211 212
43 42 43 45 51 49 271 247 244 240 241 242 245 247 261 258 254 252 250 246 241 239 237 238 235 234 237 238 238 237 236 236 236 236 238 236 233 229 226 222 214 203 202
50 51 53 51 53 64 66 77 72 83 259 256 245 256 261 264 263 253 250 245 236 234 237 236 236 236 236 238 238 242 244 243 240 239 238 237 238 236 233 228 218 214 211
58 55 50 50 50 53 56 51 46 53 50 49 36 2 334 304 276 256 246 242 240 239 242 238 231 231 235 236 224 237 242 243 244 242 239 236 236 238 237 233 228 224 221
54 55 56 53 50 52 55 56 64 67 53 49 48 50 42 27 336 265 256 260 255 250 245 236 230 229 235 229 205 183 291 251 243 240 237 236 236 237 237 233 231 230 229
54 55 55 56 54 55 57 64 70 63 46 37 30 26 24 23 23 358 299 281 264 250 249 251 243 238 238 227 219 211 82 245 319 232 233 234 236 236 237 236 234 232 231
54 61 63 59 58 56 56 59 59 56 47 37 31 29 27 25 23 17 9 355 325 293 271 265 259 250 247 242 231 229 238 251 223 318 249 239 236 239 240 239 237 235 234
62 63 63 62 61 60 60 60 62 60 53 46 39 33 29 26 24 19 7 358 351 344 322 290 271 265 259 252 246 245 240 243 247 212 284 285 238 241 243 242 241 238 234
64 65 65 65 63 63 61 60 61 59 55 49 44 39 33 31 28 20 8 360 352 337 333 325 307 285 275 270 261 256 249 236 229 226 231 256 248 265 248 243 240 239 236